Miscellaneous Local Product
Issued by NWS North Platte, NE

Home | Current Version | Previous Version | Text Only | Print | Product List | Glossary On
Versions: 1 2 3 4 5 6 7 8 9 10 11 12 13 14 15 16 17 18 19 20 21 22 23 24 25 26 27 28 29 30 31 32 33 34 35 36 37 38 39 40 41 42 43 44 45 46 47 48 49 50
000
AXUS43 KLBF 232110
MISLBF


WESTERN AND NORTH CENTRAL NEBRASKA HOURLY WEATHER ROUNDUP
NATIONAL WEATHER SERVICE NORTH PLATTE NE
400 PM CDT SAT JUL 23 2016

NOTE: "FAIR" INDICATES FEW OR NO CLOUDS BELOW 12,000 FEET WITH NO
SIGNIFICANT WEATHER AND/OR OBSTRUCTIONS TO VISIBILITY.

NOTE: STATIONS NOT REPORTING VARIABLES SUCH AS SKY/WEATHER OR
PRESSURE ARE PROVIDED BY RAWS AND APRS NETWORKS AND ARE NOT UNDER
NATIONAL WEATHER SERVICE QUALITY CONTROL.

...OBSERVATIONS IN AND NEAR THE EASTERN PANHANDLE OF NEBRASKA...

CITY           SKY/WX    TMP DP  RH WIND       PRES   REMARKS
PINE RIDGE     SUNNY     92  49  22 NE13G20   29.94F
CHADRON        SUNNY     93  51  23 NE10G17   29.92F HX  90
ALLIANCE       SUNNY     92  51  24 N14       29.97S
SIDNEY         SUNNY     98  42  14 N14G22    30.00F HX  94
CRESCENT LAKE    N/A     93  55  27 N9G18       N/A  HX  91
$$

...OBSERVATIONS IN NORTHERN NEBRASKA AND FAR SOUTHERN SOUTH DAKOTA...

CITY           SKY/WX    TMP DP  RH WIND       PRES   REMARKS
WINNER         FAIR     100  58  24 NW21G29   29.78R HX  99
VALENTINE      SUNNY     95  57  27 N18G25    29.85S HX  94
THEDFORD       CLOUDY    93  62  35 N17G25    29.89R HX  93
AINSWORTH      SUNNY     93  63  36 NW14      29.84R HX  94
O`NEILL        CLOUDY    96  67  38 S13       29.78S HX 100
ORD            CLOUDY    90  72  55 S9        29.80S HX  97
BROKEN BOW     CLOUDY    88  73  61 W12       29.85R HX  95
VALENTINE NWR    N/A     92  60  34 NW15G23     N/A  HX  91
BUTTE            N/A     94  71  46 NW14G22     N/A  HX 100
HALSEY           N/A     97  59  28 NW9         N/A  HX  97
EWING            N/A     91  76  61 S7          N/A  HX 103
$$

...OBSERVATIONS IN SOUTHWEST NEBRASKA AND FAR NORTHEAST COLORADO...

CITY           SKY/WX    TMP DP  RH WIND       PRES   REMARKS
HOLYOKE        FAIR      99  54  22 W7        29.95F HX  96
IMPERIAL       SUNNY     95  63  34 VRB6      29.91F HX  96
OGALLALA       SUNNY     98  51  20 NW13      29.92S HX  95
NORTH PLATTE   SUNNY     93  70  46 W9        29.87S HX  99
MCCOOK         CLOUDY    93  71  48 SE6       29.86F HX 100
LEXINGTON      SUNNY     92  71  49 S3        29.85S HX  99
STAPLETON        N/A     93  71  49 CALM        N/A  HX 100
GOTHENBURG       N/A     94  64  37 W3          N/A  HX  96
CALLAWAY         N/A     88  74  62 SW8         N/A  HX  96
$$

...OBSERVATIONS IN CENTRAL LINCOLN COUNTY AREA...

CITY           SKY/WX    TMP DP  RH WIND       PRES   REMARKS
N.P. AIRPORT   SUNNY     93  70  46 W9        29.87S HX  99
N.P. DOWNTOWN    N/A     95  71  46 CALM        N/A  HX 102
N.P. SOUTHEAST   N/A     94  70  45 W3G12       N/A  HX 100
N.P. HILLCREST   N/A     91  71  52 W6          N/A  HX  97
$$

...SOME OBSERVATIONS FROM AROUND THE REGION...

CITY           SKY/WX    TMP DP  RH WIND       PRES   REMARKS
DENVER         MOSUNNY   96  37  12 VRB5      30.06F HX  91
LARAMIE        LGT RAIN  79  42  26 SW22G29   30.23S
CHEYENNE       CLOUDY    86  40  19 W13       30.14R THUNDER
SCOTTSBLUFF    SUNNY     97  48  18 VRB5      29.96F HX  93
RAPID CITY     SUNNY     90  43  19 N23G31    29.94R
BISMARCK       MOSUNNY   83  63  50 N18       29.81R
PIERRE         SUNNY     93  65  39 NW21G31   29.77R HX  95
SIOUX FALLS    MOSUNNY   90  74  59 S10       29.75F HX  99
OMAHA          MOSUNNY   92  74  55 S15       29.79F HX 101
GRAND ISLAND   CLOUDY    96  71  44 S12       29.81F HX 103
KANSAS CITY    PTSUNNY   91  75  59 S12       29.90S HX 101
WICHITA        PTSUNNY  104  62  25 S22       29.83F HX 106
OKLAHOMA CITY  MOSUNNY   99  64  31 SW15      29.90F HX 101
DALLAS         MOSUNNY   99  68  36 S9        29.90F HX 104
AMARILLO       SUNNY     99  51  19 S18G26    30.00F HX  96
DODGE CITY     SUNNY    100  55  22 S21G31    29.87F HX  98
HAYS           SUNNY    106  55  18 SW17G25   29.81S HX 105
GOODLAND       SUNNY    100  52  19 N10       29.94F HX  97
$$




USA.gov is the U.S. government's official web portal to all federal, state and local government web resources and services.